リニア彗星

P/2002 LZ11 ( LINEAR ) 2010

English version
Home page
Total 6,336 html files since Dec. 4, 1995
Updated on October 15, 2008

---------------------------------------------------------------------

・ プロフィール

・ 軌道要素

The following orbital elements are taken from MPC 59599:

Epoch 2010 Mar. 25.0 TT = JDT 2455280.5
T 2010 Mar. 6.0916 TT                                   MPC
q   2.364325             (2000.0)            P               Q
n   0.1409858      Peri.  107.7640      +0.9174974      +0.3661568
a   3.656109       Node   231.0513      -0.3961488      +0.8761726
e   0.353322       Incl.   11.5211      +0.0355618      +0.3134499
P   6.99
From 151 observations 2002 June 5-2004 Jan. 12, mean residual 0".7.

・ 星図

・ 光度変化

        m1 = 7.0 + 5 logΔ + 20 log r

---------------------------------------------------------------------

軌道要素はMPCのEphemerides and Orbital Elementsに掲載されたものです。
星図はステラナビゲータ Ver.8 (アストロアーツ) で作成したものです。
光度グラフはComet for Windowsで作成したものです。

---------------------------------------------------------------------

Copyright(C) 1995-2008 Seiichi Yoshida (comet@aerith.net). All rights reserved.